This is the latest recevied weather packets stored in our database for station/object JH1LWU-13. If no packets are shown the sender has not sent any weather packets the latest 10 day(s).
| Time | Temp. | Humidity | Pressure | Rain* | Wind** | Luminosity | Snow |
|---|---|---|---|---|---|---|---|
| 1777858421 | 25° C | 56% | 993 hPa | 0 mm | - | - | - |
| 1777856620 | 23.89° C | 59% | 993 hPa | 0 mm | - | - | - |
| 1777854819 | 22.22° C | 64% | 993 hPa | 0 mm | - | - | - |
| 1777853018 | 21.11° C | 67% | 994 hPa | 0 mm | - | - | - |
| 1777851217 | 18.89° C | 76% | 994 hPa | 0 mm | - | - | - |
| 1777849416 | 18.89° C | 74% | 995 hPa | 0 mm | - | - | - |
| 1777847615 | 21.11° C | 77% | 993 hPa | 0 mm | - | - | - |
| 1777845814 | 21.11° C | 78% | 994 hPa | 0 mm | - | - | - |
| 1777844013 | 20.56° C | 80% | 994 hPa | 0 mm | - | - | - |
| 1777842212 | 20° C | 81% | 991 hPa | 0 mm | - | - | - |
| 1777840411 | 18.89° C | 82% | 993 hPa | 0 mm | - | - | - |
| 1777838610 | 19.44° C | 80% | 993 hPa | 0 mm | - | - | - |
| 1777836809 | 18.89° C | 80% | 994 hPa | 0 mm | - | - | - |
| 1777835008 | 18.89° C | 80% | 996 hPa | 0 mm | - | - | - |
| 1777833207 | 18.33° C | 79% | 997 hPa | 0 mm | - | - | - |
| 1777831406 | 18.33° C | 78% | 996 hPa | 0 mm | - | - | - |
| 1777829605 | 18.33° C | 78% | 996 hPa | 0 mm | - | - | - |
| 1777827804 | 18.33° C | 77% | 1000 hPa | 0 mm | - | - | - |
| 1777826003 | 17.78° C | 76% | 998 hPa | 0 mm | - | - | - |
| 1777824202 | 17.78° C | 76% | 999 hPa | 0 mm | - | - | - |
| 1777822401 | 17.78° C | 76% | 1000 hPa | 0 mm | - | - | - |
| 1777820600 | 17.78° C | 76% | 1000 hPa | 0 mm | - | - | - |
| 1777818799 | 17.78° C | 74% | 1001 hPa | 0 mm | - | - | - |
| 1777816998 | 18.33° C | 72% | 1001 hPa | 0 mm | - | - | - |
| 1777815197 | 18.89° C | 68% | 1000 hPa | 0 mm | - | - | - |
* Rain latest hour (hover to see other rain measurements)
** Current wind speed in m/s (hover to see current wind gust speed)